When you browse on this site, cookies collect data to enhance your experience and personalize the content and advertising you see.
Visit our Privacy Policy to learn more. By continuing to use the site, you agree to this use of cookies and data.
  • In Österreich
  • Länderverzeichnis
  • Für 7 Tage
  • Wassertemperatur
  • Satellitenkarten
  • Wetterkarte
  • News
  • Widgets
  • user-avatar
    Anmelden

    Stündliche Wetter Salzburg

    Heute, 21 Mai, Dienstag

    Zeit Temperatur Niederschläge Wind Luftdruck Luftfeuchtigkeit
    00:00 +4°C° 2.7 mm 1 m/S 617 mmHg 97%
    01:00 +3°C° 0 mm 2 m/S 617 mmHg 97%
    02:00 +3°C° 1.5 mm 2 m/S 617 mmHg 97%
    03:00 +3°C° 1.5 mm 2 m/S 617 mmHg 97%
    04:00 +4°C° 1.5 mm 1 m/S 618 mmHg 97%
    05:00 +4°C° 1 mm 1 m/S 618 mmHg 97%
    06:00 +5°C° 1 mm 1 m/S 618 mmHg 97%
    07:00 +5°C° 0 mm 1 m/S 618 mmHg 97%
    08:00 +5°C° 1.5 mm 1 m/S 619 mmHg 97%
    09:00 +5°C° 1.5 mm 1 m/S 619 mmHg 96%
    10:00 +5°C° 1.5 mm 1 m/S 619 mmHg 96%
    11:00 +5°C° 1 mm 1 m/S 620 mmHg 95%
    12:00 +6°C° 1 mm 1 m/S 620 mmHg 95%
    13:00 +6°C° 1 mm 1 m/S 621 mmHg 94%
    14:00 +6°C° 0.8 mm 1 m/S 621 mmHg 95%
    15:00 +6°C° 0.8 mm 1 m/S 621 mmHg 95%
    16:00 +6°C° 0.8 mm 1 m/S 621 mmHg 95%
    17:00 +5°C° 0.7 mm 1 m/S 621 mmHg 96%
    18:00 +5°C° 0.7 mm 1 m/S 621 mmHg 96%
    19:00 +5°C° 0.7 mm 1 m/S 621 mmHg 97%
    20:00 +4°C° 0.9 mm 1 m/S 621 mmHg 97%
    21:00 +4°C° 0.9 mm 1 m/S 622 mmHg 96%
    22:00 +4°C° 0.9 mm 1 m/S 622 mmHg 96%
    23:00 +4°C° 0.2 mm 1 m/S 622 mmHg 96%

    Morgen, 22 Mai, Mittwoch

    Zeit Temperatur Niederschläge Wind Luftdruck Luftfeuchtigkeit
    00:00 +3°C° 0.2 mm 1 m/S 622 mmHg 96%
    01:00 +3°C° 0.2 mm 1 m/S 622 mmHg 95%
    02:00 +3°C° 1.3 mm 1 m/S 622 mmHg 96%
    03:00 +3°C° 1.3 mm 1 m/S 622 mmHg 96%
    04:00 +3°C° 1.3 mm 1 m/S 623 mmHg 96%
    05:00 +4°C° 1.1 mm 1 m/S 623 mmHg 96%
    06:00 +4°C° 1.1 mm 1 m/S 623 mmHg 96%
    07:00 +4°C° 1.1 mm 1 m/S 623 mmHg 96%
    08:00 +5°C° 0.7 mm 1 m/S 624 mmHg 94%
    09:00 +5°C° 0.7 mm 1 m/S 624 mmHg 93%
    10:00 +6°C° 0.7 mm 1 m/S 624 mmHg 92%
    11:00 +6°C° 0.4 mm 1 m/S 625 mmHg 89%
    12:00 +7°C° 0.4 mm 1 m/S 625 mmHg 87%
    13:00 +8°C° 0.4 mm 1 m/S 625 mmHg 85%
    14:00 +7°C° 0.3 mm 2 m/S 625 mmHg 84%
    15:00 +7°C° 0.3 mm 2 m/S 625 mmHg 84%
    16:00 +7°C° 0.3 mm 2 m/S 625 mmHg 84%
    17:00 +8°C° 0.1 mm 1 m/S 625 mmHg 87%
    18:00 +7°C° 0.1 mm 1 m/S 625 mmHg 91%
    19:00 +6°C° 0.1 mm 1 m/S 625 mmHg 94%
    20:00 +6°C° 0.3 mm 1 m/S 626 mmHg 95%
    21:00 +5°C° 0.3 mm 1 m/S 626 mmHg 96%
    22:00 +4°C° 0.3 mm 1 m/S 626 mmHg 97%
    23:00 +4°C° 0.3 mm 1 m/S 626 mmHg 96%

    übermorgen, 23 Mai, Donnerstag

    Zeit Temperatur Niederschläge Wind Luftdruck Luftfeuchtigkeit
    00:00 +4°C° 0.3 mm 1 m/S 626 mmHg 96%
    01:00 +4°C° 0.3 mm 1 m/S 626 mmHg 96%
    02:00 +4°C° 0.4 mm 1 m/S 626 mmHg 96%
    03:00 +4°C° 0.4 mm 1 m/S 626 mmHg 97%
    04:00 +3°C° 0.4 mm 0 m/S 626 mmHg 98%
    05:00 +4°C° 0.1 mm 1 m/S 626 mmHg 96%
    06:00 +5°C° 0.1 mm 1 m/S 627 mmHg 95%
    07:00 +6°C° 0.1 mm 1 m/S 627 mmHg 93%
    08:00 +6°C° 0.1 mm 1 m/S 627 mmHg 90%
    09:00 +7°C° 0.1 mm 1 m/S 627 mmHg 86%
    10:00 +8°C° 0.1 mm 1 m/S 627 mmHg 83%
    11:00 +9°C° 0 mm 1 m/S 628 mmHg 73%
    12:00 +11°C° 0 mm 1 m/S 628 mmHg 64%
    13:00 +13°C° 0 mm 1 m/S 629 mmHg 54%
    14:00 +12°C° 0 mm 2 m/S 628 mmHg 56%
    15:00 +12°C° 0 mm 2 m/S 628 mmHg 57%
    16:00 +12°C° 0 mm 2 m/S 627 mmHg 59%
    17:00 +9°C° 0 mm 2 m/S 627 mmHg 68%
    18:00 +9°C° 0 mm 1 m/S 627 mmHg 77%
    19:00 +8°C° 0 mm 1 m/S 626 mmHg 87%
    20:00 +6°C° 0 mm 1 m/S 626 mmHg 90%
    21:00 +5°C° 0 mm 1 m/S 626 mmHg 93%
    22:00 +4°C° 0 mm 1 m/S 626 mmHg 96%
    23:00 +3°C° 0 mm 1 m/S 626 mmHg 96%

    24 Mai, Freitag

    Zeit Temperatur Niederschläge Wind Luftdruck Luftfeuchtigkeit
    00:00 +3°C° 0 mm 1 m/S 625 mmHg 96%
    01:00 +3°C° 0 mm 1 m/S 625 mmHg 95%
    02:00 +2°C° 0 mm 1 m/S 625 mmHg 94%
    03:00 +2°C° 0 mm 1 m/S 625 mmHg 92%
    04:00 +2°C° 0 mm 1 m/S 624 mmHg 90%
    05:00 +4°C° 0 mm 1 m/S 625 mmHg 83%
    06:00 +6°C° 0 mm 1 m/S 626 mmHg 75%
    07:00 +7°C° 0 mm 0 m/S 626 mmHg 68%
    08:00 +10°C° 0 mm 1 m/S 627 mmHg 61%
    09:00 +12°C° 0 mm 1 m/S 627 mmHg 55%
    10:00 +14°C° 0 mm 1 m/S 628 mmHg 48%
    11:00 +14°C° 0 mm 1 m/S 628 mmHg 47%
    12:00 +15°C° 0 mm 2 m/S 628 mmHg 45%
    13:00 +15°C° 0 mm 2 m/S 628 mmHg 44%
    14:00 +15°C° 0 mm 2 m/S 627 mmHg 48%
    15:00 +14°C° 0 mm 2 m/S 627 mmHg 51%
    16:00 +14°C° 0 mm 2 m/S 626 mmHg 55%
    17:00 +12°C° 0 mm 2 m/S 626 mmHg 64%
    18:00 +11°C° 0 mm 1 m/S 625 mmHg 74%
    19:00 +9°C° 0 mm 1 m/S 625 mmHg 83%
    20:00 +8°C° 0 mm 1 m/S 624 mmHg 87%
    21:00 +6°C° 0 mm 1 m/S 624 mmHg 91%
    22:00 +5°C° 0 mm 1 m/S 624 mmHg 95%
    23:00 +5°C° 0 mm 1 m/S 624 mmHg 96%

    25 Mai, Samstag

    Zeit Temperatur Niederschläge Wind Luftdruck Luftfeuchtigkeit
    00:00 +5°C° 0 mm 1 m/S 624 mmHg 96%
    01:00 +4°C° 0 mm 1 m/S 624 mmHg 96%
    02:00 +4°C° 0 mm 1 m/S 624 mmHg 96%
    03:00 +4°C° 0 mm 1 m/S 624 mmHg 95%
    04:00 +4°C° 0 mm 1 m/S 623 mmHg 95%
    05:00 +6°C° 0 mm 1 m/S 624 mmHg 88%
    06:00 +8°C° 0 mm 1 m/S 625 mmHg 81%
    07:00 +8°C° 0 mm 0 m/S 626 mmHg 74%
    08:00 +11°C° 0 mm 1 m/S 627 mmHg 67%
    09:00 +13°C° 0 mm 1 m/S 627 mmHg 59%
    10:00 +15°C° 0 mm 1 m/S 628 mmHg 52%
    11:00 +15°C° 0.1 mm 1 m/S 628 mmHg 52%
    12:00 +15°C° 0.1 mm 2 m/S 628 mmHg 53%
    13:00 +15°C° 0.1 mm 2 m/S 628 mmHg 54%
    14:00 +14°C° 0.4 mm 2 m/S 627 mmHg 61%
    15:00 +14°C° 0.4 mm 2 m/S 627 mmHg 69%
    16:00 +13°C° 0.4 mm 2 m/S 626 mmHg 76%
    17:00 +12°C° 0.3 mm 2 m/S 626 mmHg 82%
    18:00 +10°C° 0.3 mm 1 m/S 626 mmHg 87%
    19:00 +9°C° 0.3 mm 1 m/S 625 mmHg 93%
    20:00 +8°C° 0.1 mm 1 m/S 626 mmHg 94%
    21:00 +7°C° 0.1 mm 1 m/S 626 mmHg 96%
    22:00 +7°C° 0.1 mm 1 m/S 626 mmHg 97%
    23:00 +6°C° 0.1 mm 1 m/S 626 mmHg 98%

    26 Mai, Sonntag

    Zeit Temperatur Niederschläge Wind Luftdruck Luftfeuchtigkeit
    00:00 +5°C° 0.1 mm 0 m/S 626 mmHg 98%
    01:00 +5°C° 0.1 mm 0 m/S 626 mmHg 98%
    02:00 +6°C° 0 mm 1 m/S 626 mmHg 98%
    03:00 +6°C° 0 mm 1 m/S 626 mmHg 98%
    04:00 +6°C° 0 mm 1 m/S 625 mmHg 98%
    05:00 +6°C° 0 mm 1 m/S 626 mmHg 96%
    06:00 +6°C° 0 mm 1 m/S 626 mmHg 95%
    07:00 +7°C° 0 mm 1 m/S 626 mmHg 93%
    08:00 +8°C° 0.1 mm 1 m/S 626 mmHg 87%
    09:00 +9°C° 0.1 mm 1 m/S 627 mmHg 81%
    10:00 +10°C° 0.1 mm 1 m/S 627 mmHg 75%
    11:00 +10°C° 0.1 mm 2 m/S 627 mmHg 70%
    12:00 +12°C° 0.1 mm 2 m/S 627 mmHg 65%
    13:00 +12°C° 0.1 mm 2 m/S 627 mmHg 60%
    14:00 +12°C° 0 mm 2 m/S 627 mmHg 60%
    15:00 +12°C° 0 mm 2 m/S 627 mmHg 59%
    16:00 +13°C° 0 mm 2 m/S 627 mmHg 59%
    17:00 +10°C° 0 mm 2 m/S 626 mmHg 67%
    18:00 +10°C° 0 mm 1 m/S 626 mmHg 75%
    19:00 +9°C° 0 mm 1 m/S 625 mmHg 83%
    20:00 +7°C° 0 mm 1 m/S 625 mmHg 87%
    21:00 +6°C° 0 mm 1 m/S 625 mmHg 91%
    22:00 +4°C° 0 mm 1 m/S 625 mmHg 96%
    23:00 +4°C° 0 mm 1 m/S 624 mmHg 96%
    Mehr zeigen